FLOCK 2K-35

Last updated on Feb. 14, 2018, 4:20 p.m. UTC

1 42877U 17042BE  18044.71505885  .00006745  00000-0  19635-3 0  9997
2 42877  96.9930 307.5900 0012027 178.8730 181.2544 15.35648120 32685
UTC
Height (km)
Latitude
Longitude
Inclination
Orbital Period
UTC large
Height (km)
Speed (km/s)
/
Latitude / Longitude
Inclination (degrees)
Orbital Period (minutes)
Azimuth
Elevation
Range (km)
Doppler Factor
iOS Compass Heading
iOS Angle